Current weather by "City, St" or "zip code"  
 

Current Conditions: Reagan County Airport, TX

Fair


75.0 F

Last Updated on May 21 2022, 3:15 am CDT
Humidity: 53%
Wind Speed: S 8.1 mph
Barometer 29.77 in
Dewpoint: 57.0 F
Visibility: 10.00 mi
Precip: --
Heat Index: NA
Wind Chill: NA
Current conditions at:

Reagan County Airport, TX (KE41)

Lat: 31.1989 Lon: 101.473

Local Radar Image active severe weather and emergency alerts image image weather storm and storm spotter reports image weather observation monitoring service image
Local
Radar
Active
Alerts
Storm Reports Obs
Monitoring

Sign-up For Email & Text Message Weather Alert Notification Services



Advertise Here

Observation History for Reagan County Airport, TX


Time Wind
(mph)
Vis
(mi)
Weather Precip (in) Temperature (F) Relative
Humidity
Wind
Chill
(F)
Heat
Index
(F)
Pressure
Air Dwpt altimeter
(in)
sea level
(mb)
Rmks
3:15 am CDT S 8.1 10.00 Fair -- 75.0 57.0 53% NA NA 29.77 M
2:55 am CDT S 8.1 10.00 Fair -- 76.0 55.9 50% NA NA 29.77 M
2:15 am CDT S 5.8 10.00 Fair -- 76.0 54.0 47% NA NA 29.77 M
1:55 am CDT S 4.6 10.00 Fair -- 76.0 52.7 45% NA NA 29.77 M
1:35 am CDT S 5.8 10.00 Fair -- 77.0 52.3 43% NA NA 29.77 M
1:15 am CDT S 9.2 10.00 Fair -- 79.0 52.9 40% NA NA 29.77 M
12:55 am CDT S 11.5 10.00 Fair -- 80.0 51.6 38% NA 80 29.76 M
12:15 am CDT S 6.9 10.00 Fair -- 78.0 43.7 30% NA NA 29.75 M
11:55 pm CDT S 6.9 10.00 Fair -- 79.0 38.3 24% NA NA 29.74 M
11:40 pm CDT S 6.9 10.00 Fair -- 79.0 34.7 20% NA NA 29.74 M
11:15 pm CDT S 5.8 10.00 Fair -- 81.0 31.1 16% NA 79 29.74 M
10:55 pm CDT S 6.9 10.00 Fair -- 82.0 27.9 14% NA 80 29.73 M
10:35 pm CDT S 6.9 10.00 Fair -- 82.0 21.9 11% NA 80 29.71 M
9:55 pm CDT S 6.9 10.00 Fair -- 85.0 21.6 10% NA 82 29.69 M
9:15 pm CDT S 8.1 10.00 Fair -- 88.0 20.8 8% NA 84 29.67 M
8:55 pm CDT S 8.1 10.00 Fair -- 91.0 20.3 8% NA 87 29.66 M
8:35 pm CDT S 9.2 10.00 Fair -- 92.0 26.1 9% NA 88 29.65 M
8:15 pm CDT S 5.8 10.00 Fair -- 93.0 32.9 12% NA 89 29.64 M
7:55 pm CDT SE 5.8 10.00 Fair -- 94.0 30.6 10% NA 89 29.63 M
7:30 pm CDT S 5.8 7.00 Fair with Haze -- 95.0 30.4 10% NA 90 29.63 M
7:15 pm CDT S 5.8 10.00 Fair -- 96.0 29.7 9% NA 91 29.63 M
6:55 pm CDT W 5.8 10.00 Fair -- 96.0 28.9 9% NA 91 29.63 M
5:55 pm CDT W 4.6 10.00 Fair -- 98.0 25.5 7% NA 93 29.63 M
4:55 pm CDT W 6.9 10.00 Fair -- 98.0 26.2 8% NA 93 29.64 M

Regional Weather Observation


Midland, Midland International Airport, TX (KMAF)

Fair
68.0 F

Odessa, Odessa-Schlemeyer Field, TX (KODO)

Fair
73.0 F

Ozona Municipal Airport, TX (KOZA)

Overcast with Haze
73.0 F

Big Spring, Big Spring McMahon-Wrinkle Airport, TX (KBPG)

Fair
75.0 F

Midland, Midland Airpark, TX (KMDD)

Fair
69.0 F

San Angelo, Mathis Field, TX (KSJT)

Fair
81.0 F

Advertise Here


Advertise Here